Location: Le Castellard
(44.1862°N, 6.1301°E)
Time: 19:28:52
(UTC+00:00)

METEOR-M - Pass Details

Date: 18 January 2020
Orbit: 816 x 820 km, 98.4° (Epoch: 21 February)

Event Time Altitude Azimuth Distance (km) Brightness Sun altitude
Rises 05:04:57 0° 12° (NNE) 3,361 7.4 -21.4°
Reaches altitude 10° 05:07:19 10° 12° (NNE) 2,424 6.6 -20.9°
Maximum altitude 05:12:41 82° 286° (WNW) 833 4.0 -20.0°
Drops below altitude 10° 05:18:01 10° 199° (SSW) 2,405 6.5 -19.1°
Sets 05:20:20 0° 198° (SSW) 3,332 7.2 -18.6°
